Probability
65 68 61 55 58 61 65 65 65 61 61 58 48 45 45 42 39 48 39 45 39 35 29 29 26 19 23 10 6 6 6 3 3 6 3 3 10 13 6 10 6 13 3
58 58 58 58 58 61 61 52 55 55 55 55 52 55 52 39 42 45 42 32 29 35 35 29 23 19 19 16 16 6 6 6 3 6 3 3 19 10 13 19 0 0 0
55 61 65 65 58 48 48 48 52 52 52 48 48 48 48 39 42 39 39 35 29 29 29 29 23 16 16 16 13 13 3 3 6 3 3 3 3 6 6 6 3 13 0
65 65 65 71 58 55 55 45 48 48 52 52 52 52 52 42 39 39 35 26 26 26 29 26 23 19 19 13 13 16 6 3 6 6 6 6 6 3 6 6 6 10 6
58 55 55 58 61 61 55 48 48 52 52 55 52 55 52 48 42 35 32 26 26 23 23 23 16 16 13 13 6 13 13 6 6 6 6 6 6 10 10 3 3 6 10
55 58 55 61 61 61 58 58 45 52 52 55 58 48 52 32 10 6 19 29 26 26 23 23 19 10 6 0 0 0 0 3 10 6 6 6 13 10 16 3 6 6 3
65 65 65 58 58 65 55 52 58 58 55 55 55 55 48 32 6 0 0 19 32 32 26 19 13 6 6 13 3 0 0 0 0 3 6 6 3 3 3 3 6 3 3
55 52 58 55 45 55 55 55 52 58 55 58 55 48 52 32 3 0 0 0 26 32 26 23 26 23 6 13 16 10 6 3 0 0 0 0 0 0 0 0 0 0 3
52 45 52 55 48 52 52 61 65 58 55 55 55 52 48 39 3 0 0 16 19 23 26 16 16 19 3 0 10 13 3 0 0 0 0 0 0 0 0 0 0 0 0
55 52 48 58 58 58 58 65 68 68 61 48 48 48 48 45 3 0 0 13 19 16 32 19 3 3 3 0 6 13 10 3 0 0 0 0 0 0 0 0 0 0 0
52 52 55 55 61 61 55 58 65 68 58 45 52 55 52 39 16 0 0 13 23 19 16 16 13 0 0 0 0 6 3 0 0 0 0 0 0 0 0 0 0 0 0
45 45 48 58 48 42 58 65 68 68 68 55 52 48 45 39 13 0 0 0 0 19 13 6 6 0 0 0 0 0 0 0 0 0 0 0 0 0 0 3 3 3 3
45 45 48 58 55 58 65 65 68 68 58 45 39 39 35 29 19 0 0 0 0 0 13 0 0 0 0 0 0 0 0 0 0 0 0 0 0 0 0 0 0 0 3
45 39 42 45 42 48 52 52 48 45 35 39 35 26 26 32 26 13 6 3 0 0 3 3 0 0 0 0 0 0 0 0 0 0 0 0 0 0 0 0 0 0 0
48 52 42 42 42 42 35 26 35 35 35 29 35 29 23 16 6 3 3 3 3 0 0 10 10 6 3 0 0 0 0 0 0 0 0 0 0 0 0 0 0 0 0
39 35 35 39 35 26 13 13 0 0 0 0 3 6 13 0 0 0 0 0 0 0 0 6 3 0 0 0 0 0 0 0 0 0 0 0 0 0 0 0 0 0 0
39 29 23 19 19 23 16 13 13 0 0 0 0 0 0 0 0 0 0 0 0 0 0 0 3 0 0 0 0 0 0 0 0 0 0 0 0 0 0 0 0 0 0
19 16 16 16 13 10 10 13 16 13 10 6 0 0 0 0 0 0 0 0 0 0 0 0 0 0 3 3 3 0 0 0 0 0 0 0 0 0 0 0 0 0 0
10 10 13 13 6 6 6 6 10 10 13 13 6 0 0 0 0 0 0 0 0 0 0 0 0 0 3 3 3 3 3 0 0 0 0 0 0 0 0 0 0 0 0
10 6 10 10 10 6 6 6 10 10 10 6 6 3 3 0 3 0 0 0 0 3 3 3 3 3 3 3 3 3 3 3 3 0 0 0 0 0 0 0 0 0 0
13 6 0 6 13 13 6 10 13 10 10 6 3 3 3 3 3 3 3 3 3 3 3 3 3 3 3 3 3 3 3 3 0 0 0 0 0 0 0 0 0 0 0
6 6 6 6 10 6 6 6 6 6 6 3 3 3 0 3 3 3 3 3 3 3 3 3 3 3 3 3 3 0 0 0 0 0 0 0 0 0 0 0 0 0 0
6 6 3 10 6 3 6 6 10 6 3 3 3 3 3 3 3 3 3 3 3 3 3 3 3 3 3 3 0 0 0 0 0 0 0 0 0 0 0 0 0 0 0
3 3 6 3 3 3 3 3 3 6 6 3 3 3 3 3 3 3 3 3 3 3 3 3 3 3 3 0 0 0 0 0 0 0 0 0 0 0 0 0 0 0 0
3 3 3 6 3 3 3 3 3 3 3 6 6 6 6 6 6 3 6 3 3 3 3 0 0 0 0 0 0 0 0 0 0 0 0 0 0 0 0 0 0 0 0
3 3 3 6 6 3 3 3 3 3 3 3 3 3 3 3 3 3 3 0 0 0 0 0 0 0 0 0 0 0 0 0 0 0 0 0 0 0 0 0 0 0 0
Height
5842 5844 5845 5846 5848 5849 5851 5853 5855 5856 5858 5860 5861 5862 5864 5865 5867 5868 5870 5871 5873 5874 5875 5876 5876 5877 5877 5878 5878 5878 5877 5877 5877 5876 5875 5874 5873 5872 5870 5869 5867 5866 5865
5839 5840 5841 5843 5844 5846 5847 5849 5851 5852 5854 5855 5856 5858 5860 5861 5863 5864 5865 5867 5868 5869 5870 5871 5872 5873 5873 5873 5874 5874 5873 5873 5873 5872 5871 5870 5869 5868 5866 5865 5863 5861 5860
5836 5837 5838 5839 5841 5842 5843 5845 5847 5848 5850 5851 5852 5854 5855 5857 5858 5860 5861 5863 5864 5865 5866 5867 5868 5868 5869 5869 5869 5869 5869 5869 5868 5867 5866 5865 5864 5863 5861 5860 5858 5856 5855
5833 5834 5834 5835 5837 5838 5839 5841 5842 5844 5845 5846 5847 5849 5851 5852 5854 5855 5857 5858 5859 5860 5861 5862 5863 5863 5864 5864 5864 5864 5864 5863 5863 5862 5861 5860 5858 5857 5856 5854 5852 5851 5849
5829 5830 5831 5832 5833 5834 5835 5837 5838 5839 5840 5841 5843 5844 5846 5847 5849 5851 5852 5853 5854 5855 5856 5857 5858 5858 5859 5859 5859 5859 5858 5858 5857 5856 5855 5854 5853 5851 5850 5848 5846 5844 5843
5826 5826 5827 5828 5829 5830 5831 5832 5833 5834 5835 5836 5838 5839 5841 5842 5844 5845 5846 5848 5849 5850 5851 5851 5852 5853 5853 5854 5854 5853 5853 5852 5851 5850 5849 5848 5847 5845 5843 5841 5839 5838 5836
5822 5823 5823 5824 5824 5825 5826 5827 5828 5829 5830 5831 5833 5834 5835 5837 5838 5840 5841 5842 5843 5844 5845 5846 5847 5847 5848 5848 5848 5847 5847 5846 5845 5844 5843 5841 5840 5838 5836 5835 5833 5830 5828
5818 5818 5818 5819 5819 5820 5821 5822 5822 5823 5824 5826 5827 5829 5830 5831 5833 5834 5835 5836 5837 5838 5839 5840 5840 5841 5841 5841 5841 5841 5840 5839 5838 5837 5836 5834 5833 5831 5829 5827 5825 5823 5820
5813 5813 5814 5814 5814 5815 5815 5816 5817 5818 5819 5820 5821 5823 5824 5826 5827 5828 5829 5830 5831 5832 5833 5833 5834 5834 5835 5835 5835 5834 5833 5832 5831 5830 5828 5827 5825 5823 5821 5819 5817 5814 5811
5808 5808 5809 5809 5809 5810 5810 5811 5812 5812 5813 5814 5816 5817 5819 5821 5822 5823 5823 5824 5825 5826 5826 5827 5827 5828 5828 5828 5828 5827 5826 5825 5823 5822 5821 5819 5817 5815 5812 5810 5807 5804 5802
5803 5803 5804 5804 5804 5804 5805 5805 5806 5807 5808 5809 5810 5812 5813 5815 5816 5817 5818 5818 5819 5819 5820 5820 5820 5820 5821 5820 5820 5819 5818 5817 5815 5814 5812 5810 5808 5806 5803 5800 5797 5794 5791
5798 5798 5798 5798 5799 5799 5800 5800 5800 5801 5802 5803 5804 5806 5807 5808 5810 5811 5811 5812 5812 5812 5813 5813 5813 5813 5813 5812 5812 5811 5810 5808 5807 5805 5803 5801 5798 5796 5793 5790 5787 5783 5780
5792 5792 5793 5793 5794 5794 5795 5795 5795 5796 5797 5797 5799 5800 5800 5802 5803 5804 5804 5804 5805 5805 5805 5805 5805 5805 5805 5804 5803 5802 5801 5800 5798 5795 5793 5791 5788 5785 5782 5779 5776 5772 5769
5787 5787 5787 5788 5788 5789 5789 5790 5790 5791 5791 5792 5793 5793 5794 5795 5796 5797 5797 5798 5798 5798 5798 5797 5797 5797 5796 5796 5795 5793 5792 5790 5788 5786 5783 5780 5777 5774 5771 5768 5764 5760 5756
5781 5781 5782 5783 5783 5783 5784 5785 5785 5786 5786 5786 5787 5787 5788 5789 5790 5790 5790 5791 5791 5790 5790 5790 5790 5789 5788 5787 5786 5784 5783 5780 5778 5775 5772 5770 5766 5763 5760 5756 5752 5747 5743
5775 5776 5776 5777 5778 5778 5779 5779 5780 5780 5780 5781 5781 5782 5782 5782 5782 5783 5783 5783 5783 5783 5782 5782 5781 5780 5779 5778 5776 5775 5773 5770 5768 5765 5762 5758 5755 5751 5747 5743 5739 5734 5729
5770 5770 5771 5771 5772 5773 5773 5774 5774 5775 5775 5775 5775 5775 5775 5775 5775 5775 5775 5775 5775 5774 5774 5773 5772 5771 5770 5768 5766 5764 5762 5759 5756 5753 5750 5746 5743 5738 5734 5730 5725 5720 5716
5764 5765 5765 5766 5767 5767 5768 5768 5768 5769 5769 5769 5769 5769 5768 5768 5768 5768 5768 5767 5766 5766 5765 5764 5762 5761 5759 5758 5756 5753 5751 5748 5744 5741 5738 5734 5730 5725 5721 5716 5712 5707 5702
5759 5759 5760 5760 5761 5761 5762 5762 5762 5763 5763 5762 5762 5761 5761 5760 5760 5760 5759 5759 5758 5757 5756 5754 5753 5751 5749 5747 5745 5742 5739 5736 5732 5729 5725 5721 5717 5712 5707 5703 5698 5693 5689
5753 5753 5754 5755 5755 5756 5756 5756 5756 5756 5756 5756 5755 5755 5754 5754 5753 5752 5752 5751 5749 5748 5747 5745 5743 5741 5739 5736 5734 5730 5727 5724 5720 5716 5712 5708 5703 5699 5694 5689 5685 5680 5675
5748 5748 5749 5749 5749 5750 5750 5750 5750 5750 5749 5749 5748 5748 5747 5746 5745 5744 5743 5742 5740 5739 5737 5735 5733 5730 5728 5725 5722 5719 5715 5712 5708 5703 5699 5695 5690 5685 5681 5676 5672 5667 5662
5743 5743 5744 5744 5744 5744 5744 5744 5743 5743 5742 5742 5741 5740 5739 5738 5737 5736 5735 5733 5731 5729 5727 5725 5722 5720 5717 5714 5711 5707 5703 5699 5695 5690 5686 5681 5677 5672 5668 5663 5659 5654 5649
5738 5738 5739 5739 5738 5738 5738 5737 5737 5736 5735 5734 5734 5733 5732 5730 5728 5727 5725 5723 5721 5719 5717 5714 5712 5709 5705 5702 5698 5694 5690 5686 5682 5677 5673 5668 5664 5659 5655 5650 5646 5641 5636
5733 5733 5733 5733 5733 5732 5732 5731 5730 5729 5728 5727 5726 5724 5723 5722 5720 5718 5716 5714 5711 5709 5706 5704 5700 5697 5694 5690 5686 5682 5678 5674 5669 5665 5661 5656 5651 5647 5642 5638 5633 5628 5624
5727 5727 5727 5727 5726 5725 5725 5724 5723 5722 5721 5719 5718 5716 5714 5712 5710 5708 5706 5704 5701 5698 5695 5692 5689 5686 5682 5678 5674 5670 5666 5661 5657 5653 5648 5644 5639 5634 5630 5625 5621 5616 5612
5721 5721 5721 5720 5719 5719 5718 5717 5716 5714 5713 5711 5709 5707 5705 5703 5701 5699 5696 5694 5691 5688 5685 5681 5678 5674 5670 5666 5662 5658 5654 5650 5645 5641 5636 5632 5627 5622 5618 5613 5609 5605 5600
Wind_Speed
14 15 16 16 16 17 17 18 18 17 18 19 19 19 19 19 19 19 20 19 19 18 18 17 17 16 16 16 15 15 15 15 15 15 16 16 16 17 17 18 18 18 19
15 16 16 16 17 17 17 18 18 18 18 18 19 19 19 19 20 20 20 19 19 19 18 18 18 18 18 18 18 17 17 17 17 18 18 18 18 19 19 19 20 20 20
14 15 16 16 17 18 18 18 18 18 19 19 19 19 19 20 21 20 20 20 20 20 19 19 19 19 20 20 20 20 20 20 20 20 20 21 21 22 22 21 21 22 22
15 16 17 17 18 19 19 19 19 19 19 19 19 19 20 21 21 21 21 21 20 20 20 20 20 20 21 20 21 21 21 21 22 22 22 23 23 23 24 23 23 24 24
15 15 16 17 17 18 19 20 20 20 20 20 20 19 20 21 21 22 21 21 21 21 21 21 21 21 21 21 21 21 21 22 23 23 24 25 25 25 25 25 25 25 26
15 15 16 17 18 19 19 20 21 21 21 21 20 20 20 21 21 21 22 22 22 21 21 21 20 20 20 21 21 22 22 23 24 25 25 26 26 26 27 26 26 26 27
16 16 17 17 18 19 20 20 20 20 21 21 21 21 21 21 21 21 21 22 22 22 22 22 22 22 23 23 23 23 24 25 25 25 26 28 28 28 29 29 28 29 30
17 17 18 18 18 19 19 19 20 20 20 21 22 22 21 21 21 22 23 22 22 23 23 24 23 24 23 24 25 26 27 27 26 27 27 28 29 29 30 30 31 32 33
18 19 19 19 19 19 19 19 20 21 21 22 22 22 21 22 22 22 23 23 23 24 25 25 25 25 26 27 27 28 29 28 28 28 29 29 30 31 31 32 33 34 34
19 19 19 19 20 20 20 20 21 21 22 21 22 22 22 22 22 22 23 23 24 25 26 26 27 27 28 29 29 29 29 29 29 29 30 31 32 33 34 35 36 36 38
19 19 19 19 19 20 20 21 21 22 22 22 22 22 23 23 23 23 23 24 24 25 26 27 28 29 29 29 29 29 31 32 32 32 33 34 35 36 37 37 38 39 40
19 19 19 18 18 19 19 19 20 20 21 22 23 23 23 24 25 25 25 25 26 26 26 27 28 29 28 28 29 31 32 33 33 34 35 37 38 39 39 39 39 40 42
19 19 19 18 18 18 18 19 20 21 21 21 23 24 24 25 25 25 25 25 26 27 28 29 29 28 29 30 31 32 34 33 34 34 35 37 38 39 39 40 40 42 43
19 19 19 18 18 19 19 19 20 20 21 21 22 23 24 25 26 26 26 27 27 26 27 28 29 30 30 31 32 32 33 34 35 36 37 38 39 39 40 42 43 44 45
19 19 19 19 19 19 19 20 20 21 22 22 22 23 24 25 25 26 27 27 28 28 29 29 30 30 31 33 33 34 35 35 36 37 38 39 40 41 43 44 45 46 47
19 19 20 20 20 20 20 21 21 22 22 22 22 22 23 25 27 28 28 28 28 29 29 30 31 33 34 35 35 36 37 38 38 38 39 41 42 44 46 47 48 47 47
20 20 20 21 21 21 22 22 22 23 23 24 25 25 26 27 27 27 27 28 29 31 32 32 33 35 36 37 37 37 38 39 39 40 42 43 45 46 46 47 47 47 47
20 20 20 21 21 22 22 23 23 23 24 25 26 27 27 27 27 26 27 28 28 30 32 34 34 35 37 38 38 39 39 40 41 43 44 45 46 47 47 47 47 47 47
21 20 21 21 21 21 22 23 23 23 24 24 24 25 25 26 26 26 26 27 29 30 31 33 34 35 36 37 38 39 40 41 42 44 45 45 46 47 47 47 47 47 48
20 20 20 20 20 20 21 22 23 23 23 24 25 25 25 26 26 26 26 28 29 31 32 34 34 35 36 37 39 40 41 42 43 44 45 45 46 46 46 47 47 47 47
19 19 19 19 19 20 21 21 21 23 23 24 25 25 26 26 26 26 27 28 30 31 32 34 34 35 38 39 39 41 42 43 44 45 45 45 46 46 46 46 46 47 47
18 18 18 19 19 20 21 22 22 22 23 24 25 25 26 27 27 28 30 31 32 32 33 35 36 37 39 41 42 43 43 44 44 45 45 45 45 45 46 46 46 46 46
18 19 19 20 20 20 20 21 22 22 23 25 26 27 28 28 29 30 30 32 33 33 34 35 36 37 39 41 42 43 44 44 44 45 45 44 44 44 44 44 44 44 44
18 19 19 20 20 21 21 22 23 24 25 26 27 29 30 31 31 31 31 32 33 34 35 36 38 39 40 41 42 42 43 43 42 42 42 42 43 43 44 44 43 43 43
18 19 19 20 20 21 22 23 25 26 27 28 29 30 31 31 31 31 32 33 34 35 36 37 39 40 40 41 41 41 41 41 41 41 41 42 42 42 42 42 42 42 41
19 19 20 21 22 22 23 24 26 27 28 28 29 30 30 31 31 32 33 34 35 36 37 38 38 39 39 39 39 39 40 40 40 40 41 41 40 41 41 41 41 41 40
Wind_Direction
246 242 242 243 245 243 240 237 237 239 240 239 241 242 239 238 237 238 240 243 244 247 247 248 252 257 259 261 264 268 273 277 280 284 287 289 291 294 295 295 296 297 295
244 244 244 244 245 243 243 240 239 242 242 242 241 241 239 240 240 241 242 245 246 248 248 250 254 257 258 261 264 267 272 276 280 284 287 289 290 293 294 295 296 296 295
247 247 248 249 246 244 244 241 243 244 244 243 242 242 241 241 241 241 243 247 248 248 249 252 255 257 260 262 265 269 274 277 279 283 285 288 291 291 292 293 295 295 295
252 251 251 250 247 245 244 244 246 248 247 245 244 244 243 243 242 243 245 249 250 252 252 253 254 258 262 264 268 272 275 277 279 282 284 288 290 291 291 291 292 293 295
253 251 251 250 248 246 246 246 247 249 249 247 245 244 244 245 246 247 248 248 251 253 254 254 257 261 263 265 268 271 274 277 279 282 284 287 289 290 291 291 291 292 293
252 251 252 253 252 250 248 249 250 250 249 247 246 247 246 246 246 246 249 249 250 252 254 256 259 262 266 266 268 272 275 279 280 281 284 287 287 289 291 291 291 291 292
253 254 256 257 257 253 250 252 252 251 250 248 247 247 246 247 247 246 249 249 251 251 253 257 260 262 264 267 269 272 276 279 281 281 283 286 287 288 289 289 289 290 291
255 258 258 258 258 256 253 255 254 252 250 249 248 247 246 246 247 246 249 250 252 253 256 259 262 263 265 268 272 273 276 280 282 283 286 286 286 287 288 288 289 290 292
256 259 259 258 257 256 255 254 253 253 252 250 249 246 246 248 250 251 251 252 253 255 258 261 263 265 266 270 275 276 277 280 283 285 286 287 287 287 288 290 290 290 291
257 259 259 258 256 255 253 254 254 252 252 250 246 246 248 249 250 253 254 256 257 258 259 261 264 267 268 271 275 278 280 281 282 284 285 287 289 289 290 291 291 291 292
259 259 260 260 256 254 254 255 254 253 253 251 249 250 250 251 251 254 256 257 257 259 262 263 265 269 271 273 275 277 280 282 283 285 286 287 289 290 291 291 291 290 291
259 261 262 260 257 253 254 253 252 253 253 252 251 251 252 253 254 254 256 258 259 261 263 265 268 270 270 272 275 278 281 283 283 284 286 288 289 291 292 292 291 291 292
260 261 260 260 256 253 253 253 255 255 255 254 253 254 255 255 255 255 258 260 261 264 265 267 268 270 272 273 274 276 280 282 284 286 288 289 290 291 292 293 293 293 293
261 259 256 257 257 255 254 255 257 258 257 256 256 256 255 255 255 257 258 260 261 263 266 267 269 271 272 275 278 280 282 284 286 288 289 290 291 292 292 293 293 294 294
260 258 256 254 256 257 257 259 261 261 262 259 258 257 258 260 259 260 262 261 263 266 269 269 270 271 274 278 281 282 284 286 287 289 290 291 291 292 293 294 294 294 294
257 259 257 255 257 258 259 260 261 262 262 260 260 261 260 260 260 261 262 264 266 268 270 272 273 274 277 280 282 283 285 286 288 290 291 291 292 293 294 294 294 294 295
257 259 257 257 258 259 258 260 261 261 261 261 262 262 263 264 264 263 264 266 268 270 271 273 274 276 278 281 282 284 285 287 288 290 291 293 293 294 295 295 295 294 295
255 256 255 257 257 258 258 258 261 264 265 264 264 266 267 268 268 269 269 269 271 272 274 275 276 279 281 281 282 285 286 288 290 291 292 293 293 295 295 295 295 296 295
253 253 254 254 255 258 259 259 261 265 268 269 271 271 271 273 272 271 272 273 273 274 276 278 280 282 283 285 286 288 290 292 292 293 294 295 296 297 296 296 296 296 297
257 255 253 255 257 258 260 262 262 264 267 269 272 273 275 277 275 275 276 278 278 279 279 280 282 283 285 288 290 291 292 292 293 294 295 296 297 297 296 296 296 297 297
259 258 256 257 259 261 264 267 267 266 268 272 274 275 277 278 277 277 278 280 281 283 283 283 284 285 286 289 291 292 293 294 294 294 296 297 297 297 297 297 297 297 298
261 262 261 262 263 264 266 268 270 273 273 272 274 276 278 278 278 280 281 282 282 283 284 285 287 289 290 290 291 292 294 295 295 296 296 297 297 298 298 298 298 298 298
263 265 266 268 270 271 272 272 272 274 275 276 277 278 280 280 282 283 283 283 284 285 286 287 289 289 290 291 293 295 296 296 297 297 298 298 298 298 297 298 298 298 299
264 267 268 270 272 273 274 274 275 277 278 279 280 282 283 283 283 284 284 285 286 287 288 289 290 291 292 293 295 296 297 298 298 298 298 298 297 297 297 297 297 298 298
266 269 270 272 274 276 276 278 279 280 280 280 282 284 285 285 286 287 288 289 289 290 290 291 292 293 294 296 296 297 297 297 298 298 298 298 298 298 298 298 298 299 299
268 271 274 274 276 278 279 280 282 283 283 284 285 286 287 288 289 289 290 291 292 292 292 293 293 295 296 297 298 297 297 297 298 299 299 299 299 299 299 298 298 298 298